SCP
0 0 0 0 0 0 0 1 1 1 1 1 1 1 1 1 1 1 0 0 0 0 0 0 0 0 0 0 0 0 0 0 0 0 0 0 0 0 0 0 0 0 0
0 0 0 0 0 0 0 0 0 0 1 1 1 1 1 1 1 1 0 0 0 0 0 0 0 0 0 0 0 0 0 0 0 0 0 0 0 0 0 0 0 0 0
0 0 0 0 0 0 0 0 0 0 0 0 0 1 1 1 1 0 0 0 0 0 0 0 0 0 0 0 0 0 0 0 0 0 0 0 0 0 0 0 0 0 0
0 0 0 0 0 0 0 0 0 0 0 0 0 0 0 0 0 0 0 0 0 0 0 0 0 0 0 0 0 0 0 0 0 0 0 0 0 0 0 0 0 0 0
0 0 0 0 0 0 0 0 0 0 0 0 0 0 0 0 0 0 0 0 0 0 0 0 0 0 0 0 0 0 0 0 0 0 0 0 0 0 0 0 0 0 0
0 0 0 0 0 0 0 0 0 0 0 0 0 0 0 0 0 0 0 0 0 0 0 0 0 0 0 0 0 0 0 0 0 0 0 0 0 0 0 0 0 0 0
0 0 0 0 0 0 0 0 0 0 0 0 0 0 0 0 0 0 0 0 0 0 0 0 0 0 0 0 0 0 0 0 0 0 0 0 0 0 0 0 0 0 0
0 0 0 0 0 0 0 0 0 0 0 0 0 0 0 0 0 0 0 0 0 0 0 0 0 0 0 0 0 0 0 0 0 0 0 0 0 0 0 0 0 0 0
0 0 0 0 0 0 0 0 0 0 0 0 0 0 0 0 0 0 0 0 0 0 0 0 0 0 0 0 0 0 0 0 0 0 0 0 0 0 0 0 0 0 0
0 0 0 0 0 0 0 0 0 0 0 0 0 0 0 0 0 0 0 0 0 0 0 0 0 0 0 0 0 0 0 0 0 0 0 0 0 0 0 0 0 0 0
0 0 0 0 0 0 0 0 0 0 0 0 0 0 0 0 0 0 0 0 0 0 0 0 0 0 0 0 0 0 0 0 0 0 0 0 0 0 0 0 0 0 0
0 0 0 0 0 0 0 0 0 0 0 0 0 0 0 0 0 0 0 0 0 0 0 0 0 0 0 0 0 0 0 -0 0 0 0 0 0 0 0 0 0 0 0
0 0 0 0 0 0 0 0 0 0 0 0 0 0 0 0 0 0 0 0 0 0 0 0 0 0 0 0 0 0 -0 -0 -0 0 0 0 0 0 0 0 0 0 0
0 0 0 0 0 0 0 0 0 0 0 0 0 0 0 0 0 0 0 0 0 0 0 0 0 0 0 0 0 0 0 0 0 0 0 0 0 0 0 0 0 0 0
0 0 0 0 0 0 0 0 0 0 0 0 0 0 0 0 0 0 0 0 0 -0 -0 0 0 0 0 0 0 0 0 0 0 0 0 0 0 0 0 0 0 0 0
0 0 0 0 0 0 0 0 0 0 0 0 0 0 0 0 0 0 0 0 0 -0 0 0 0 0 0 0 0 0 0 0 0 0 0 0 0 0 0 0 0 0 0
0 0 0 0 0 0 0 0 0 0 0 0 0 0 0 0 0 0 0 0 0 0 0 0 0 0 0 0 0 0 0 0 0 0 0 0 0 0 0 0 0 0 0
0 0 0 0 0 0 0 0 0 0 0 0 0 0 0 0 0 0 0 0 0 0 0 0 0 0 0 0 0 0 0 0 0 0 0 0 0 0 0 0 0 0 0
0 0 0 0 0 0 0 0 0 0 0 0 0 0 0 0 0 0 0 0 0 0 0 0 0 0 0 0 0 0 0 0 0 0 0 0 0 0 0 0 0 0 0
0 0 0 0 0 0 0 0 0 0 0 0 0 0 0 0 0 0 0 0 0 0 0 0 0 0 0 0 0 0 0 0 0 0 0 0 0 0 0 0 0 0 0
0 0 0 0 0 0 0 0 0 0 0 0 0 0 0 0 0 0 0 0 0 0 0 0 0 0 0 0 0 0 0 0 0 0 0 0 0 0 0 0 0 0 0
0 0 0 0 0 0 0 0 0 0 0 0 0 0 0 0 0 0 0 0 0 0 0 0 0 0 0 0 0 0 0 0 0 0 0 0 0 0 0 0 0 0 0
0 0 0 0 0 0 0 0 0 0 0 0 0 0 0 0 0 0 0 0 0 0 0 0 0 0 0 0 0 0 0 0 0 0 0 0 0 0 0 0 0 0 0
0 0 0 0 0 0 0 0 0 0 0 0 0 0 0 0 0 0 0 0 0 0 0 0 0 0 0 0 0 0 0 0 0 0 0 0 0 0 0 0 0 0 0
0 0 0 0 0 0 0 0 0 0 0 0 0 0 0 0 0 0 0 0 0 0 0 0 0 0 0 0 0 0 0 0 0 0 0 0 0 0 0 0 0 0 0
0 0 0 0 0 0 0 0 0 0 0 0 0 0 0 0 0 0 0 0 0 0 0 0 0 0 0 0 0 0 0 0 0 0 0 0 0 0 0 0 0 0 0
Wind_Speed
5 5 5 5 6 6 5 6 7 7 8 8 8 8 8 7 6 5 6 7 6 6 6 6 7 7 5 5 5 5 5 5 4 2 2 4 6 7 8 8 8 7 8
6 6 6 6 6 6 6 6 7 8 8 9 8 8 9 9 7 6 7 7 6 6 6 6 7 6 6 5 4 5 5 5 5 5 4 4 6 8 9 8 8 8 7
7 7 6 7 6 7 7 7 7 7 8 9 9 9 9 9 8 8 7 6 6 5 5 5 6 6 6 4 4 4 3 4 5 6 5 4 5 6 8 8 9 7 8
8 8 8 9 9 9 9 9 8 8 8 8 9 9 9 9 10 9 7 6 5 4 3 3 4 5 4 4 3 2 2 4 5 7 7 6 5 6 7 8 7 6 6
9 9 9 10 10 10 10 10 9 9 10 8 8 9 9 9 9 7 6 7 4 3 2 2 2 3 4 3 2 1 3 4 6 7 7 6 6 5 5 5 7 6 6
9 10 9 9 10 10 10 10 10 10 9 9 8 8 9 9 7 7 6 6 4 3 3 1 1 0 2 3 4 4 4 6 7 7 6 8 7 6 4 5 6 6 5
9 9 9 9 10 10 11 10 9 9 9 9 8 8 8 8 8 7 8 6 5 4 3 2 2 2 2 3 6 8 8 8 7 7 9 8 7 6 5 5 4 4 4
9 10 10 9 10 9 9 9 8 7 8 7 8 8 8 9 8 7 7 7 6 4 4 4 4 4 3 4 6 7 8 7 7 7 8 7 7 5 4 6 6 5 4
12 10 10 9 9 9 9 8 7 7 7 7 8 9 8 7 6 7 6 4 4 4 4 5 6 6 6 8 9 10 10 8 11 13 12 11 12 9 6 5 5 5 4
12 10 10 9 9 10 9 8 8 7 7 8 9 8 8 7 5 7 7 3 4 3 4 5 8 9 9 8 8 9 10 8 8 9 9 9 8 7 7 4 2 4 5
11 10 9 9 9 10 9 8 8 8 9 8 9 8 7 7 5 7 8 4 3 3 3 4 6 12 10 8 7 7 10 9 8 7 6 6 5 5 5 5 4 4 5
11 11 10 10 12 12 8 7 7 7 8 8 8 9 7 5 5 6 8 7 3 2 2 3 7 13 11 9 8 11 13 10 6 6 6 5 5 6 6 6 7 8 8
12 12 11 12 10 10 10 9 9 8 8 9 7 7 6 4 4 6 7 6 5 2 1 3 8 13 11 8 11 13 10 5 5 6 6 6 6 7 6 5 6 7 7
13 12 11 11 12 11 8 8 8 8 8 7 6 5 4 3 3 4 4 4 4 3 2 6 11 12 8 9 9 7 5 4 5 6 7 8 6 5 5 5 5 5 6
13 12 12 11 11 10 9 8 9 8 7 6 5 4 3 3 3 5 3 3 3 3 4 5 7 7 7 7 6 5 4 4 5 7 8 7 6 5 5 5 5 5 5
12 12 10 9 8 8 8 9 11 11 10 9 8 5 2 4 9 8 6 4 4 5 6 7 8 8 9 8 7 6 5 5 6 7 7 6 5 5 5 4 4 5 6
12 11 9 8 8 8 8 8 8 8 9 10 9 9 7 9 10 9 7 5 4 7 5 7 7 8 8 8 7 7 6 6 6 6 6 5 5 5 5 4 4 5 5
12 13 11 9 8 8 8 8 8 7 6 5 7 10 10 11 11 9 7 5 4 5 6 7 7 7 7 7 7 7 6 7 6 6 6 5 5 5 5 4 4 5 5
11 9 8 8 8 8 8 8 7 7 6 5 4 6 9 10 9 8 8 5 6 8 8 7 7 6 6 7 7 7 8 7 6 5 6 6 5 5 4 4 5 6 5
9 13 11 7 7 7 7 7 7 6 5 5 6 6 8 8 6 6 6 6 7 8 7 6 5 6 6 6 6 7 8 7 6 6 6 5 5 5 5 6 6 4 3
7 7 10 8 6 6 6 7 6 6 6 6 5 7 12 9 9 9 8 8 7 8 7 5 5 6 6 6 6 8 9 7 6 6 7 5 5 5 5 5 6 4 4
5 5 4 5 5 5 5 5 5 5 6 6 5 8 12 8 8 8 8 8 8 7 6 5 5 5 6 7 7 7 8 8 7 6 7 6 5 5 5 5 5 4 4
5 4 4 4 4 4 5 4 5 5 5 5 6 8 8 7 8 8 9 9 8 7 5 5 5 5 6 6 6 6 8 8 7 7 7 6 5 5 4 5 5 5 4
5 4 3 2 3 4 4 5 5 5 5 6 7 8 8 8 8 9 9 8 7 6 5 4 5 7 10 8 6 6 7 8 8 7 8 7 6 5 4 4 5 5 4
4 2 1 1 2 2 3 4 5 5 5 6 7 7 7 7 8 9 9 8 8 6 6 5 5 7 11 12 9 6 9 11 8 7 7 6 6 6 6 5 4 4 4
3 2 1 0 1 1 2 3 4 5 6 7 7 7 7 8 9 9 8 7 7 6 6 5 6 8 11 10 10 11 11 11 9 7 5 5 5 4 5 4 5 4 5
Wind_Direction
343 343 339 339 341 336 332 333 332 324 316 307 302 296 289 281 273 270 275 280 287 293 293 292 289 282 272 266 258 243 234 220 216 176 140 134 130 123 117 117 117 102 97
325 324 322 323 322 317 315 318 319 317 315 308 297 292 289 285 279 273 275 283 290 296 299 300 301 299 291 276 259 246 233 213 182 160 143 139 130 130 129 125 117 109 105
301 298 296 294 294 293 292 294 297 298 301 305 304 294 290 288 283 276 270 273 280 287 299 304 304 305 299 290 271 249 226 197 164 148 139 129 125 128 124 117 113 113 113
271 270 269 268 267 268 271 272 275 277 282 288 294 297 294 290 283 276 272 270 271 278 291 300 306 310 305 296 276 248 185 158 146 139 133 129 127 129 125 125 125 129 126
265 263 260 259 259 259 261 262 263 266 273 275 284 293 294 288 283 287 278 271 266 269 280 296 335 352 357 338 290 208 156 141 137 136 135 131 130 134 132 133 132 129 120
270 270 268 263 262 260 259 258 258 259 262 264 269 281 287 289 310 312 295 285 278 262 257 228 168 97 61 57 60 79 127 142 141 138 138 139 136 131 124 136 138 138 135
279 279 276 272 269 264 266 265 259 260 264 268 270 274 276 281 279 271 273 275 267 254 229 194 192 143 145 113 91 83 80 96 120 134 134 135 134 137 133 131 138 135 126
282 281 280 280 279 276 272 271 270 270 272 275 275 274 275 281 273 253 263 268 263 249 215 181 161 151 152 132 111 92 79 75 97 110 111 109 114 126 135 135 131 115 103
283 279 279 278 279 278 278 277 277 275 276 273 273 267 269 273 261 243 240 259 256 238 206 177 161 152 143 132 119 108 98 86 81 94 103 106 104 102 110 124 135 129 124
282 277 276 274 275 275 274 275 277 275 272 271 268 264 266 268 247 225 220 238 250 236 199 172 161 147 144 138 131 125 118 115 113 107 105 110 110 103 93 98 128 141 133
281 276 273 271 270 269 264 262 264 267 271 273 274 270 262 261 239 223 212 221 228 230 193 173 155 148 147 141 136 129 130 129 124 122 118 115 111 100 82 64 55 104 118
289 286 281 277 277 279 273 270 266 264 267 266 262 264 259 249 228 209 205 208 215 213 201 173 154 153 147 143 137 139 143 140 133 132 128 123 111 96 87 79 73 76 86
288 284 282 281 278 275 272 270 267 260 257 260 258 257 250 227 181 181 188 186 194 191 210 176 158 156 145 137 143 150 155 153 144 140 131 118 107 107 104 98 90 84 77
284 283 281 278 274 270 265 263 262 260 258 255 255 257 249 213 178 171 176 166 175 170 175 157 158 161 154 141 151 164 176 170 149 129 117 115 118 128 133 132 120 107 95
284 282 279 274 272 268 264 257 256 254 249 247 253 247 229 210 167 156 164 157 161 157 145 151 163 165 159 154 163 177 182 160 131 120 123 133 145 153 151 149 143 136 127
283 280 274 269 267 266 265 267 255 247 249 238 230 229 207 153 146 150 152 139 132 143 151 171 172 172 166 164 170 174 172 152 135 132 140 152 156 149 142 148 152 144 141
276 274 269 266 263 260 258 258 263 252 238 228 219 211 196 158 154 159 159 149 149 155 178 185 177 176 169 168 170 168 162 145 139 143 148 148 141 138 145 154 143 127 123
277 272 267 259 256 253 249 247 249 248 239 226 216 207 187 168 164 161 151 141 158 177 201 195 185 181 170 166 167 162 150 143 145 147 146 143 143 147 150 148 135 132 132
278 269 262 256 250 248 246 244 243 243 237 226 199 184 180 163 155 153 155 178 184 192 207 207 190 178 168 162 159 150 143 145 151 144 142 144 148 149 150 141 123 129 142
273 267 263 254 245 242 238 237 233 229 222 215 204 178 158 159 165 165 183 191 198 202 207 208 186 170 160 153 145 143 143 146 150 145 141 148 150 149 145 136 137 155 163
278 268 260 251 239 236 234 230 221 212 209 207 200 172 163 170 174 176 182 193 207 207 205 202 180 168 154 144 146 147 147 149 154 152 148 156 155 150 148 147 155 169 155
286 267 253 248 240 230 225 218 207 203 203 199 169 155 166 170 172 175 185 196 208 211 198 192 181 168 153 153 153 152 152 156 163 157 153 160 154 154 156 158 163 166 158
298 284 266 247 227 209 212 206 193 194 195 183 162 158 172 175 175 178 188 195 199 206 194 189 180 166 152 150 152 158 160 160 162 157 156 159 161 163 164 160 164 169 172
309 293 272 235 211 199 194 188 188 187 179 167 161 166 173 174 175 180 184 185 190 196 191 187 181 165 153 149 155 167 163 156 156 158 161 163 166 167 166 166 177 182 179
316 321 298 244 196 178 180 181 175 171 165 159 159 162 164 169 173 175 179 181 186 188 191 185 173 163 156 157 164 157 140 141 151 158 161 167 172 172 173 178 186 190 195
320 330 342 80 131 154 160 159 157 157 154 154 156 159 165 169 169 171 178 181 180 183 187 181 173 161 155 163 155 136 134 135 135 142 162 174 179 182 183 192 200 206 211